sat.trackr.live / text

‹ back to catalog

STARLINK-30198

NORAD 57290 · 2023-096A

PAYLOAD ACTIVE UNKNOWN

§ Identity

Operator
Country
US
Launch date
2023-07-10
Launch site
AFETR
Launch vehicle
Mass (kg)
RCS (m²)

Purposes: comms

External: N2YO · Heavens-Above · Gunter

§ Orbital elements

Epoch: 2026-09-20T13:35:19.672224Z

Period
93.98 min
Inclination
42.9834°
Eccentricity
0.0013479
Mean motion
15.32302066 rev/d
Perigee alt
459.7 km
Apogee alt
478.2 km
Semi-major
6,847.1 km
B*
1.2494e-3
RAAN
205.6076°
Arg perigee
155.3123°
Mean anomaly
204.8378°
Rev number
17,738

§ Raw data

STARLINK-301981 57290U 23096A   26263.56619991  .00039837  00000+0  12494-2 0  99992 57290  42.9834 205.6076 0013479 155.3123 204.8378 15.32302066177381

JSON: /api/v1/satellites/57290 · /tle

For live sub-satellite position, see the globe view (requires WebGL).

§ Visibility from observer

Set your observer location to see the next 7 days of passes ≥ 10°. The values pass through the URL so the page stays shareable.

No JS? Fill the form by hand. The geolocation button needs JavaScript.